User: anonymous   Login
Location: *
(50.8512°N, 5.6907°E)
Time: 17:09:50
(UTC+00:00)
Language:

Cosmos 2061 Rocket - Orbit

View from above orbital plane
View from above orbital plane
View from above satellite
View from above satellite

Ground track
Ground track

The orbit data is extracted from the following two-line orbital elements,

1 20528U 90023B   20185.43510670 -.00000019  00000-0 -36914-4 0  9992
2 20528  82.9358 321.6256 0032102 172.2030 246.5072 13.72866629517641
Epoch (UTC): 03 July 2020 10:26:33
Eccentricity: 0.0032102
inclination: 82.9358°
perigee height: 965 km
apogee height: 1013 km
right ascension of ascending node: 321.6256°
argument of perigee: 172.2030°
revolutions per day: 13.72866629
mean anomaly at epoch: 246.5072°
orbit number at epoch: 51764

The dashed part of the orbit path shows where the satellite is in the earth's shadow,  

DLR